Simultaneous Nadir Overpasses (SNOs) Predictions

Prediction of SNOs between AURA and NPP Satellite Orbit:

Table of predicted SNOs for the next 14.0 days since TLE Epoch: 4/12/2013
Index Date (AURA) Time (AURA) Lat,Lon (AURA) SZA (AURA ) Date (NPP) Time (NPP) Lat,Lon (NPP) SZA (NPP ) Distance(km) Time Diff (sec)
1 04/14/2013 12:15:09 79.75,-104.85 82.56 04/14/2013 12:14:39 79.75,-104.88 82.59 0.71 30
2 04/14/2013 13:04:31 -79.94, 64.24 97.75 04/14/2013 13:05:18 -79.94, 64.23 97.78 0.34 47
3 04/17/2013 04:31:39 79.83, 11.62 81.48 04/17/2013 04:31:33 79.84, 11.74 81.46 2.55 6
4 04/17/2013 05:21:01 -80.01,-179.27 98.83 04/17/2013 05:22:12 -80.02,-179.12 98.91 2.97 71
5 04/19/2013 19:58:49 -79.66, -41.42 99.21 04/19/2013 19:57:51 -79.66, -41.49 99.15 1.54 58
6 04/19/2013 20:48:10 79.84, 127.57 80.52 04/19/2013 20:48:30 79.83, 127.45 80.53 2.59 20
7 04/22/2013 12:15:17 -79.72, 74.85 100.20 04/22/2013 12:14:45 -79.71, 74.75 100.16 2.10 32
8 04/22/2013 13:04:38 79.89,-116.15 79.52 04/22/2013 13:05:24 79.88,-116.30 79.52 3.15 46
9 04/25/2013 04:31:43 -79.84,-168.28 101.29 04/25/2013 04:31:37 -79.85,-168.18 101.31 1.93 6




NCC Satellite Simultaneous Nadir Overpasses (SNOs) Prediction Service
